Tracking 35275 objects as of 9-Sep-2026
HD Live streaming from Space Station
objects crossing your sky now

STARLINK-1153

Track STARLINK-1153 now!
10-day predictions
STARLINK-1153 is classified as:


NORAD ID: 45080
Int'l Code: 2020-006AN
Launch date: January 29, 2020
Source: United States (US)
Launch site: AIR FORCE EASTERN TEST RANGE (AFETR)
Your satellite tracking list
Your tracking list is empty




NASA's NSSDC Master Catalog

Two Line Element Set (TLE):
1 45080U 20006AN  26251.91751384  .00036265  00000-0  74320-3 0  9990
2 45080  53.1529 117.0612 0003288 176.1969 183.9064 15.45745470365065
Source of the keplerian elements: AFSPC